Weather in Tsentral'nyy

Russia / Tula Oblast     53°45′55″N   36°25′29″E
temp.,
°C
wind,
m/s
gust,
m/s
humid.,
%
clouds,
%
prec.,
mm/h
press.,
hPa
HPBL,
m
18 may, tue
tue1800:00+18se615785 0.0 1007381
03:00+15ese410915 0.0 1007181
06:00+15se38895 0.0 1006169
09:00+20ese610695 0.0 1006421
12:00+24se7135783 0.0 10061050
15:00+24ese61260100 0.0 10051531
18:00+22ese6126758 0.0 1004581
21:00+16s498955 0.0 1005212
19 may, wed
wed1900:00+14ese379498 0.0 1006141
03:00+14se3893100 0.0 1005178
06:00+14se6119199 0.8 1006584
09:00+17sse578236 1.5 1006562
12:00+20sse576841 1.7 10061422
15:00+21sse5763100 2.2 10061358
18:00+19sse3779100 0.7 1006716
21:00+15sse3589100 2.6 100685
20 may, thu
thu2000:00+13sse119671 0.0 100516
03:00+13sse489597 0.1 1005315
06:00+12sse5109375 0.0 1005456
09:00+12sse41093100 0.1 1005529
12:00+16s6875100 1.2 10051340
15:00+16ssw687786 3.2 10051221
18:00+16ssw4780100 1.3 1005871
21:00+12ssw6129532 3.1 1006500
21 may, fri
fri2100:00+11sw5993100 0.3 1007590
03:00+8sw61093100 0.4 1008673
06:00+8sw71194100 0.1 10081103
09:00+8sw81292100 0.3 10101217
12:00+9wsw71292100 0.1 1013924
15:00+14wnw81170100 0.2 10151456
18:00+16w3566100 0.0 1016933
21:00+12sw2271100 0.0 101819
22 may, sat
sat2200:00+11w1272100 0.0 101911
03:00+11e2272100 0.0 101920
06:00+11e2375100 0.0 101959
09:00+12ese4586100 0.0 1020437
12:00+11ene3889100 0.3 1020366
15:00+11ene5988100 0.3 1019424
18:00+11ne5991100 0.2 1018368
21:00+10ene489799 0.2 1018229